DW2363 Weather Reports


time (UTC)temp
C
wind
direction
speed
KPH
gust
KPH
rain 1hr
cm
rain 24hr
cm
rain mn
cm
humidity
%
barometer
mb
20260510034726 20 72 4.8 9.7 0.00 0.00 0.00 69 1012.9
20260510034228 20 84 4.8 9.7 0.00 0.00 0.00 68 1013.0
20260510033726 20 86 6.4 11.3 0.00 0.00 0.00 69 1012.9
20260510033226 20 61 8.0 12.9 0.00 0.00 0.00 69 1012.8
20260510032732 20 73 4.8 11.3 0.00 0.00 0.00 69 1012.7
20260510032726 20 73 8.0 12.9 0.00 0.00 0.00 69 1012.8
20260510031726 20 62 6.4 11.3 0.00 0.00 0.00 68 1012.6
20260510031226 21 69 8.0 11.3 0.00 0.00 0.00 68 1012.5
20260510030726 21 78 4.8 8.0 0.00 0.00 0.00 68 1012.5
20260510030226 21 78 4.8 8.0 0.00 0.00 0.00 68 1012.4
20260510025729 21 78 4.8 8.0 0.00 0.00 0.00 68 1012.3
20260510025725 21 75 3.2 8.0 0.00 0.00 0.00 67 1012.3
20260510024724 21 48 3.2 6.4 0.00 0.00 0.00 67 1012.2
20260510024225 21 69 3.2 6.4 0.00 0.00 0.00 66 1012.2
20260510023724 21 69 3.2 6.4 0.00 0.00 0.00 66 1012.3
20260510023222 22 69 3.2 6.4 0.00 0.00 0.00 65 1012.2
20260510022720 22 5 3.2 4.8 0.00 0.00 0.00 65 1012.3
20260510022220 22 241 1.6 4.8 0.00 0.00 0.00 64 1012.2
20260510021724 22 229 0.0 1.6 0.00 0.00 0.00 64 1012.2
20260510021720 22 229 0.0 1.6 0.00 0.00 0.00 64 1012.3
20260510020724 22 229 0.0 6.4 0.00 0.00 0.00 64 1012.2
20260510020720 22 229 0.0 1.6 0.00 0.00 0.00 64 1012.2
20260510015725 22 225 1.6 6.4 0.00 0.00 0.00 63 1012.2
20260510015720 22 229 1.6 6.4 0.00 0.00 0.00 62 1012.2
20260510014720 22 261 1.6 6.4 0.00 0.00 0.00 63 1012.2
20260510014224 22 228 3.2 4.8 0.00 0.00 0.00 63 1012.2
20260510014220 22 228 1.6 4.8 0.00 0.00 0.00 62 1012.2
20260510013217 22 242 3.2 6.4 0.00 0.00 0.00 63 1012.2
20260510012719 22 227 4.8 8.0 0.00 0.00 0.00 63 1012.1
20260510012218 22 200 4.8 8.0 0.00 0.00 0.00 63 1012.1
20260510011718 22 223 4.8 8.0 0.00 0.00 0.00 63 1012.1
20260510011217 22 198 4.8 11.3 0.00 0.00 0.00 64 1012.1
20260510010722 22 214 4.8 11.3 0.00 0.00 0.00 64 1012.1
20260510010718 22 200 4.8 11.3 0.00 0.00 0.00 64 1012.1
20260510005718 22 204 4.8 11.3 0.00 0.00 0.00 64 1012.1
20260510005222 22 225 6.4 12.9 0.00 0.00 0.00 65 1012.1
20260510005217 22 212 6.4 12.9 0.00 0.00 0.00 65 1012.1
20260510004216 22 219 6.4 11.3 0.00 0.00 0.00 66 1012.1
20260510003716 21 205 8.0 12.9 0.00 0.00 0.00 65 1012.1
20260510003216 21 221 8.0 12.9 0.00 0.00 0.00 65 1012.1
20260510002716 21 237 8.0 11.3 0.00 0.00 0.00 66 1012.2
20260510002216 21 246 8.0 12.9 0.00 0.00 0.00 65 1012.1
20260510001716 21 229 8.0 12.9 0.00 0.00 0.00 66 1012.2
20260510001216 21 234 8.0 12.9 0.00 0.00 0.00 65 1012.1
20260510000716 21 236 8.0 11.3 0.00 0.00 0.00 64 1012.1
20260510000216 21 219 8.0 11.3 0.00 0.00 0.00 65 1012.1
20260509235716 22 246 8.0 12.9 0.00 0.00 0.00 64 1012.2
20260509235220 22 232 8.0 12.9 0.00 0.00 0.00 64 1012.2
20260509235216 21 244 8.0 12.9 0.00 0.00 0.00 64 1012.3
20260509234215 22 225 8.0 11.3 0.00 0.00 0.00 64 1012.3
20260509233716 22 212 6.4 11.3 0.00 0.00 0.00 62 1012.3
20260509233215 22 231 6.4 11.3 0.00 0.00 0.00 64 1012.3
20260509232715 22 246 6.4 11.3 0.00 0.00 0.00 63 1012.3
20260509232216 22 225 6.4 11.3 0.00 0.00 0.00 63 1012.3
20260509231719 22 216 6.4 11.3 0.00 0.00 0.00 62 1012.4
20260509231715 23 206 4.8 9.7 0.00 0.00 0.00 62 1012.3
20260509231325 23 217 3.2 8.0 0.00 0.00 0.00 63 1012.3
20260509230217 23 225 3.2 8.0 0.00 0.00 0.00 63 1012.3
20260509230213 23 223 3.2 8.0 0.00 0.00 0.00 63 1012.3
20260509225211 23 228 3.2 11.3 0.00 0.00 0.00 64 1012.4
20260509224711 22 240 4.8 11.3 0.00 0.00 0.00 65 1012.4
20260509224211 22 237 4.8 9.7 0.00 0.00 0.00 65 1012.5
20260509223711 23 240 4.8 9.7 0.00 0.00 0.00 63 1012.5
20260509223208 23 225 4.8 9.7 0.00 0.00 0.00 64 1012.6
20260509222713 23 186 3.2 9.7 0.00 0.00 0.00 63 1012.6
20260509222707 23 189 4.8 9.7 0.00 0.00 0.00 63 1012.6
20260509221706 23 194 3.2 8.0 0.00 0.00 0.00 64 1012.6
20260509221208 23 221 3.2 9.7 0.00 0.00 0.00 63 1012.7
20260509221204 23 205 3.2 9.7 0.00 0.00 0.00 63 1012.8
20260509220203 23 189 3.2 8.0 0.00 0.00 0.00 62 1012.9
20260509215704 23 155 3.2 9.7 0.00 0.00 0.00 64 1012.9
20260509215204 22 189 3.2 9.7 0.00 0.00 0.00 61 1012.9
20260509214704 22 192 3.2 8.0 0.00 0.00 0.00 61 1012.9
20260509214203 23 213 3.2 8.0 0.00 0.00 0.00 62 1013.0
20260509213703 23 177 3.2 8.0 0.00 0.00 0.00 63 1013.1
20260509213204 23 183 3.2 9.7 0.00 0.00 0.00 62 1013.1
20260509212710 23 226 3.2 8.0 0.00 0.00 0.00 63 1013.2
20260509212704 23 161 3.2 9.7 0.00 0.00 0.00 63 1013.1
20260509211704 23 188 3.2 8.0 0.00 0.00 0.00 63 1013.2
20260509211203 23 155 3.2 8.0 0.00 0.00 0.00 64 1013.4
20260509210703 23 168 3.2 8.0 0.00 0.00 0.00 63 1013.4
20260509210203 23 131 3.2 9.7 0.00 0.00 0.00 62 1013.4
20260509205704 23 184 1.6 9.7 0.00 0.00 0.00 63 1013.4
20260509205204 23 136 1.6 9.7 0.00 0.00 0.00 62 1013.5
20260509204704 23 164 3.2 11.3 0.00 0.00 0.00 64 1013.4
20260509204211 23 128 1.6 14.5 0.00 0.00 0.00 65 1013.5
20260509204204 23 115 1.6 11.3 0.00 0.00 0.00 66 1013.5
20260509203203 23 172 3.2 14.5 0.00 0.00 0.00 65 1013.4
20260509202704 23 191 3.2 16.1 0.00 0.00 0.00 65 1013.5
20260509202203 23 188 3.2 16.1 0.00 0.00 0.00 65 1013.5
20260509201704 23 215 1.6 9.7 0.00 0.00 0.00 66 1013.5
20260509201204 23 167 1.6 6.4 0.00 0.00 0.00 66 1013.6
20260509200706 22 130 1.6 6.4 0.00 0.00 0.00 66 1013.5
20260509200702 23 160 1.6 6.4 0.00 0.00 0.00 64 1013.5
20260509195701 22 239 1.6 11.3 0.00 0.00 0.00 63 1013.6
20260509195202 23 126 3.2 11.3 0.00 0.00 0.00 66 1013.6
20260509194701 22 218 3.2 11.3 0.00 0.00 0.00 66 1013.6
20260509194201 22 157 3.2 11.3 0.00 0.00 0.00 68 1013.6
20260509193702 22 169 3.2 9.7 0.00 0.00 0.00 67 1013.7
20260509193206 22 75 3.2 11.3 0.00 0.00 0.00 68 1013.7
20260509193202 22 153 1.6 9.7 0.00 0.00 0.00 68 1013.7
20260509192159 22 136 4.8 16.1 0.00 0.00 0.00 67 1013.7
20260509191659 23 105 4.8 16.1 0.00 0.00 0.00 67 1013.7
20260509191203 22 20 4.8 12.9 0.00 0.00 0.00 68 1013.8
20260509191159 22 30 4.8 9.7 0.00 0.00 0.00 67 1013.8
20260509190159 22 29 4.8 12.9 0.00 0.00 0.00 68 1013.9
20260509185705 22 34 4.8 14.5 0.00 0.00 0.00 69 1013.8
20260509185659 22 34 6.4 14.5 0.00 0.00 0.00 68 1013.8
20260509185159 22 64 6.4 14.5 0.00 0.00 0.00 68 1013.8
20260509184200 22 355 4.8 14.5 0.00 0.00 0.00 68 1014.0
20260509183658 21 74 4.8 12.9 0.00 0.00 0.00 69 1013.9
20260509183157 21 78 4.8 11.3 0.00 0.00 0.00 70 1014.0
20260509182656 21 47 4.8 12.9 0.00 0.00 0.00 70 1013.9
20260509182201 21 348 4.8 12.9 0.00 0.00 0.00 70 1014.0
20260509182157 21 12 4.8 12.9 0.00 0.00 0.00 70 1013.9
20260509181201 21 47 3.2 9.7 0.00 0.00 0.00 69 1014.0
20260509181157 21 21 3.2 9.7 0.00 0.00 0.00 70 1014.0
20260509180202 21 52 3.2 11.3 0.00 0.00 0.00 71 1014.1
20260509180157 21 40 3.2 8.0 0.00 0.00 0.00 71 1014.0
20260509175158 21 80 3.2 11.3 0.00 0.00 0.00 72 1014.0
20260509174701 20 68 4.8 9.7 0.00 0.00 0.00 73 1014.0
20260509174657 21 103 3.2 8.0 0.00 0.00 0.00 73 1014.0
20260509173655 20 24 6.4 9.7 0.00 0.00 0.00 73 1014.1
20260509173200 20 46 6.4 11.3 0.00 0.00 0.00 71 1013.9
20260509173155 20 20 6.4 11.3 0.00 0.00 0.00 73 1014.0
20260509172155 20 59 4.8 9.7 0.00 0.00 0.00 70 1013.9
20260509171656 20 59 4.8 9.7 0.00 0.00 0.00 70 1013.8
20260509171153 19 52 6.4 9.7 0.00 0.00 0.00 71 1013.8
20260509170654 20 43 6.4 9.7 0.00 0.00 0.00 71 1013.7
20260509170153 20 41 4.8 9.7 0.00 0.00 0.00 65 1013.7
20260509165653 20 28 3.2 9.7 0.00 0.00 0.00 62 1013.6
20260509165153 20 57 3.2 8.0 0.00 0.00 0.00 65 1013.6
20260509164652 20 34 3.2 8.0 0.00 0.00 0.00 64 1013.6
20260509164153 20 40 3.2 8.0 0.00 0.00 0.00 67 1013.6
20260509163653 20 16 3.2 8.0 0.00 0.00 0.00 66 1013.6
20260509163152 20 51 3.2 8.0 0.00 0.00 0.00 68 1013.6
20260509162652 20 51 4.8 8.0 0.00 0.00 0.00 69 1013.6
20260509162153 20 28 4.8 9.7 0.00 0.00 0.00 63 1013.6
20260509161653 21 55 4.8 9.7 0.00 0.00 0.00 65 1013.6
20260509161153 20 78 4.8 9.7 0.00 0.00 0.00 67 1013.7
20260509160653 20 77 3.2 9.7 0.00 0.00 0.00 66 1013.6
20260509160152 20 38 4.8 9.7 0.00 0.00 0.00 62 1013.7
20260509155655 20 34 4.8 9.7 0.00 0.00 0.00 62 1013.6
20260509155651 20 47 4.8 9.7 0.00 0.00 0.00 62 1013.6
20260509154648 20 55 4.8 9.7 0.00 0.00 0.00 64 1013.7
20260509154149 20 96 4.8 9.7 0.00 0.00 0.00 64 1013.7
20260509153649 20 96 4.8 11.3 0.00 0.00 0.00 65 1013.7
20260509153151 20 95 4.8 11.3 0.00 0.00 0.00 63 1013.6
20260509153147 20 102 3.2 8.0 0.00 0.00 0.00 66 1013.7
20260509152152 19 49 4.8 8.0 0.00 0.00 0.00 65 1013.6
20260509152147 19 55 4.8 8.0 0.00 0.00 0.00 62 1013.7
20260509151147 19 42 4.8 8.0 0.00 0.00 0.00 62 1013.5
20260509150647 19 19 4.8 8.0 0.00 0.00 0.00 63 1013.6
20260509150146 19 34 4.8 9.7 0.00 0.00 0.00 66 1013.6
20260509145647 18 39 6.4 9.7 0.00 0.00 0.00 65 1013.6
20260509145146 18 53 6.4 9.7 0.00 0.00 0.00 67 1013.6
20260509144646 18 32 6.4 14.5 0.00 0.00 0.00 67 1013.6
20260509144147 18 37 8.0 14.5 0.00 0.00 0.00 68 1013.6
20260509143647 18 32 9.7 14.5 0.00 0.00 0.00 68 1013.6
20260509143146 17 16 11.3 14.5 0.00 0.00 0.00 69 1013.6
20260509142647 18 11 9.7 14.5 0.00 0.00 0.00 68 1013.6
20260509142146 18 0 8.0 14.5 0.00 0.00 0.00 69 1013.5
20260509141646 18 19 9.7 14.5 0.00 0.00 0.00 68 1013.5
20260509141147 18 24 8.0 12.9 0.00 0.00 0.00 69 1013.4
20260509140647 18 26 8.0 12.9 0.00 0.00 0.00 69 1013.4
20260509140146 17 26 9.7 12.9 0.00 0.00 0.00 70 1013.4
20260509135646 17 36 9.7 14.5 0.00 0.00 0.00 69 1013.4
20260509135146 17 31 9.7 14.5 0.00 0.00 0.00 71 1013.4
20260509134646 17 24 9.7 16.1 0.00 0.00 0.00 70 1013.4
20260509134146 17 36 9.7 16.1 0.00 0.00 0.00 73 1013.4
20260509133646 17 28 11.3 17.7 0.00 0.00 0.00 73 1013.2
20260509133146 17 37 12.9 17.7 0.00 0.00 0.00 72 1013.4
20260509132644 17 49 14.5 17.7 0.00 0.00 0.00 74 1013.2
20260509132253 16 30 14.5 17.7 0.00 0.00 0.00 76 1013.0
20260509132149 16 40 16.1 19.3 0.00 0.00 0.00 76 1013.0
20260509132145 16 36 16.1 19.3 0.00 0.00 0.00 75 1013.1
20260509130645 16 32 12.9 17.7 0.00 0.00 0.00 75 1013.0
20260509130145 16 11 14.5 19.3 0.00 0.00 0.00 73 1013.0
20260509125644 17 17 14.5 19.3 0.00 0.00 0.00 72 1013.0
20260509125142 17 49 12.9 17.7 0.00 0.00 0.00 72 1012.9
20260509124642 16 61 11.3 19.3 0.00 0.00 0.00 73 1012.9
20260509124142 16 45 11.3 19.3 0.00 0.00 0.00 75 1012.9
20260509123647 16 58 14.5 19.3 0.00 0.00 0.00 75 1012.9
20260509123643 16 43 14.5 19.3 0.00 0.00 0.00 76 1012.9
20260509123249 16 59 16.1 20.9 0.00 0.00 0.00 78 1012.9
20260509122140 16 51 16.1 20.9 0.00 0.00 0.00 78 1012.8
20260509121639 16 81 17.7 19.3 0.00 0.00 0.00 78 1012.8
20260509121138 16 105 16.1 19.3 0.00 0.00 0.00 79 1012.7
20260509120638 16 99 16.1 19.3 0.00 0.00 0.00 81 1012.8
20260509120136 16 91 16.1 19.3 0.00 0.00 0.00 82 1012.8
20260509115636 16 96 16.1 19.3 0.00 0.00 0.00 82 1012.8
20260509115136 16 96 16.1 22.5 0.00 0.00 0.00 84 1012.9
20260509114636 16 101 16.1 22.5 0.00 0.00 0.00 84 1012.9
20260509114136 16 90 19.3 22.5 0.00 0.00 0.00 83 1012.9
20260509113636 16 93 19.3 22.5 0.00 0.00 0.00 82 1012.8
20260509113140 16 84 17.7 22.5 0.00 0.00 0.00 82 1012.9
20260509113136 16 82 17.7 22.5 0.00 0.00 0.00 82 1012.8
20260509112743 16 74 17.7 22.5 0.00 0.00 0.00 83 1012.8
20260509112241 15 92 16.1 20.9 0.00 0.00 0.00 84 1012.8
20260509111134 15 89 16.1 20.9 0.00 0.00 0.00 85 1012.8
20260509110634 15 71 16.1 20.9 0.00 0.00 0.00 85 1012.9
20260509110134 16 76 17.7 20.9 0.00 0.00 0.00 84 1012.9
20260509105634 16 101 17.7 20.9 0.00 0.00 0.00 83 1012.9
20260509105134 16 105 17.7 20.9 0.00 0.00 0.00 82 1012.9
20260509104634 16 103 17.7 20.9 0.00 0.00 0.00 83 1013.0
20260509104134 16 113 19.3 22.5 0.00 0.00 0.00 83 1012.9
20260509103634 16 101 19.3 22.5 0.00 0.00 0.00 83 1013.0
20260509103132 15 103 17.7 20.9 0.00 0.00 0.00 86 1013.0
20260509102632 15 108 17.7 20.9 0.00 0.00 0.00 86 1013.0
20260509102132 15 109 19.3 20.9 0.00 0.00 0.00 83 1013.0
20260509101632 16 106 17.7 20.9 0.00 0.00 0.00 82 1013.0
20260509101132 16 116 17.7 19.3 0.00 0.00 0.00 82 1013.0
20260509100632 16 115 16.1 19.3 0.00 0.00 0.00 82 1013.0
20260509100131 16 99 14.5 17.7 0.00 0.00 0.00 82 1013.1
20260509095631 15 113 14.5 16.1 0.00 0.00 0.00 82 1013.1
20260509095131 15 82 14.5 16.1 0.00 0.00 0.00 83 1013.2
20260509094631 15 83 14.5 16.1 0.00 0.00 0.00 83 1013.2
20260509094136 16 84 14.5 17.7 0.00 0.00 0.00 81 1013.4
20260509094132 16 87 14.5 16.1 0.00 0.00 0.00 82 1013.2
20260509093738 15 77 16.1 20.9 0.00 0.00 0.00 83 1013.4
20260509092631 15 93 17.7 20.9 0.00 0.00 0.00 83 1013.4
20260509092131 15 98 16.1 20.9 0.00 0.00 0.00 83 1013.4
20260509091631 16 105 16.1 19.3 0.00 0.00 0.00 82 1013.4
20260509091131 16 86 16.1 19.3 0.00 0.00 0.00 80 1013.4
20260509090628 16 82 16.1 19.3 0.00 0.00 0.00 75 1013.4
20260509090128 16 39 16.1 17.7 0.00 0.00 0.00 78 1013.5
20260509085626 16 82 16.1 19.3 0.00 0.00 0.00 76 1013.5
20260509085126 16 96 16.1 19.3 0.00 0.00 0.00 74 1013.5
20260509084626 16 87 14.5 17.7 0.00 0.00 0.00 77 1013.5
20260509084126 16 0 12.9 16.1 0.00 0.00 0.00 79 1013.6
20260509083625 16 348 12.9 16.1 0.00 0.00 0.00 77 1013.6
20260509083125 16 30 12.9 16.1 0.00 0.00 0.00 77 1013.7
20260509082625 16 24 12.9 16.1 0.00 0.00 0.00 78 1013.7
20260509082125 16 23 14.5 17.7 0.00 0.00 0.00 80 1013.7
20260509081626 16 26 14.5 17.7 0.00 0.00 0.00 80 1013.7
20260509081131 16 46 12.9 16.1 0.00 0.00 0.00 80 1013.7
20260509081125 16 37 14.5 17.7 0.00 0.00 0.00 80 1013.8
20260509080125 15 41 9.7 16.1 0.00 0.00 0.00 85 1013.8
20260509075628 15 54 8.0 14.5 0.00 0.00 0.00 86 1014.0
20260509075623 15 58 8.0 14.5 0.00 0.00 0.00 86 1013.9
20260509074623 15 44 9.7 17.7 0.00 0.00 0.00 84 1014.0
20260509074124 15 32 9.7 17.7 0.00 0.00 0.00 84 1014.1
20260509073623 15 35 9.7 16.1 0.00 0.00 0.00 86 1014.0
20260509073124 15 63 9.7 14.5 0.00 0.00 0.00 87 1014.1
20260509072732 15 48 12.9 17.7 0.00 0.00 0.00 86 1014.0
20260509072627 15 68 12.9 17.7 0.00 0.00 0.00 86 1014.0
20260509072623 15 22 11.3 17.7 0.00 0.00 0.00 86 1014.0
20260509071122 15 62 14.5 19.3 0.00 0.00 0.00 86 1014.0
20260509070621 15 49 14.5 19.3 0.00 0.00 0.00 86 1014.1
20260509070121 15 56 14.5 20.9 0.00 0.00 0.00 86 1014.1
20260509065621 15 62 14.5 20.9 0.00 0.00 0.00 86 1014.2
20260509065121 15 68 12.9 19.3 0.00 0.00 0.00 86 1014.3
20260509064621 15 92 14.5 19.3 0.00 0.00 0.00 86 1014.3
20260509064125 15 101 12.9 17.7 0.00 0.00 0.00 85 1014.3
20260509064121 15 91 12.9 17.7 0.00 0.00 0.00 86 1014.3
20260509063121 15 92 12.9 17.7 0.00 0.00 0.00 85 1014.2
20260509062621 15 102 11.3 17.7 0.00 0.00 0.00 85 1014.2
20260509062121 15 71 12.9 17.7 0.00 0.00 0.00 84 1014.2
20260509061619 15 92 12.9 19.3 0.00 0.00 0.00 83 1014.2
20260509061119 15 91 14.5 19.3 0.00 0.00 0.00 82 1014.3
20260509060619 15 90 16.1 19.3 0.00 0.00 0.00 81 1014.3
20260509060119 16 101 17.7 19.3 0.00 0.00 0.00 80 1014.2
20260509055619 16 91 16.1 19.3 0.00 0.00 0.00 78 1014.3
20260509055120 16 92 16.1 19.3 0.00 0.00 0.00 77 1014.3
20260509054623 17 101 17.7 20.9 0.00 0.00 0.00 75 1014.5
20260509054619 16 98 16.1 19.3 0.00 0.00 0.00 77 1014.4
20260509053619 17 89 19.3 20.9 0.00 0.00 0.00 74 1014.4
20260509053116 17 84 19.3 20.9 0.00 0.00 0.00 72 1014.4
20260509052614 17 83 19.3 22.5 0.00 0.00 0.00 72 1014.4
20260509052115 17 134 17.7 22.5 0.00 0.00 0.00 71 1014.4
20260509051615 17 134 16.1 20.9 0.00 0.00 0.00 73 1014.4
20260509051120 17 69 17.7 22.5 0.00 0.00 0.00 74 1014.4
20260509051116 17 51 16.1 20.9 0.00 0.00 0.00 74 1014.5
20260509050115 18 64 19.3 22.5 0.00 0.00 0.00 73 1014.4
20260509045619 18 78 19.3 24.1 0.00 0.00 0.00 74 1014.3
20260509045615 18 80 19.3 24.1 0.00 0.00 0.00 72 1014.3
20260509044615 18 71 19.3 24.1 0.00 0.00 0.00 74 1014.3
20260509044112 18 80 17.7 24.1 0.00 0.00 0.00 73 1014.2
20260509043612 18 65 17.7 22.5 0.00 0.00 0.00 71 1014.2
20260509043113 18 82 17.7 22.5 0.00 0.00 0.00 72 1014.2
20260509042612 18 80 19.3 22.5 0.00 0.00 0.00 70 1014.1
20260509042113 18 34 19.3 22.5 0.00 0.00 0.00 69 1014.1
20260509041613 18 49 19.3 22.5 0.00 0.00 0.00 69 1014.0
20260509041110 18 5 17.7 22.5 0.00 0.00 0.00 70 1014.0
20260509040611 18 37 17.7 20.9 0.00 0.00 0.00 72 1014.0
20260509040111 18 42 14.5 20.9 0.00 0.00 0.00 73 1013.9
20260509035611 18 33 11.3 14.5 0.00 0.00 0.00 78 1014.0
20260509035111 18 57 11.3 12.9 0.00 0.00 0.00 77 1014.0